Notices

What's New in latest Release from April 7th, 2021:

- Updated Glossary, including Speed of Maximum Gust, and Total Hourly Precipitation

- Updated national and regional climate services offices contacts and prices information

- Addition of station inventory lists for 1981-2010, 1971-2000, and 1961-1990 Normals.

If you haven't already, please take our survey and provide feedback about our website: https://eccc.sondage-survey.ca/f/LanguageSelection.aspx?s=442ca660-fcf1-47c0-95a9-59707d6fd709

Hourly Data Report for November 22, 2019

EUREKA CLIMATE
NUNAVUT
Current Station Operator: ECCC - MSC

79°59'21.000" N
85°56'02.000" W
10.00 m
2401199
71613
NEK

Download Data

Hourly Data (November 2019)
Hourly Data Report for November 22, 2019
TIME
LST
Temp Definition
°C
Dew Point Definition
°C
Rel Hum Definition
%
Precip. Amount Definition
mm

Wind Dir Definition
10's deg

Wind Spd Definition
km/h
Visibility Definition
km
Stn Press Definition
kPa
Hmdx Definition


Wind Chill Definition


Weather Definition


00:00 -28.4 -31.0 78 0.0 11 4   101.91   -33 LegendNANA
01:00 -29.8 -32.6 77 0.0 11 7   101.92   -37 LegendNANA
02:00 -30.3 -33.2 76 0.0 9 3   101.94   -34 LegendNANA
03:00 -31.2 -34.1 75 0.0 13 2   101.95   -34 LegendNANA
04:00 -31.5 -34.5 75 0.0   0   101.94     LegendNANA
05:00 -31.4 -34.3 75 0.0 2 9   101.93   -40 LegendNANA
06:00 -31.2 -34.1 76 0.0 5 4   101.91   -36 LegendNANA
07:00 -31.8 -34.8 74 0.0 11 4   101.88   -36 LegendNANA
08:00 -33.0 -36.2 73 0.0 11 6   101.85   -40 LegendNANA
09:00 -33.1 -36.2 73 0.0   0   101.83     LegendNANA
10:00 -33.4 -36.6 73 0.0   0   101.81     LegendNANA
11:00 -33.1 -36.3 73 0.0 10 3   101.80   -37 LegendNANA
12:00 -33.5 -36.7 73 0.0 10 4   101.78   -38 LegendNANA
13:00 -33.2 -36.4 73 0.0 11 5   101.77   -39 LegendNANA
14:00 -33.4 -36.6 73 0.0 4 6   101.75   -40 LegendNANA
15:00 -33.2 -36.4 73 0.0 12 4   101.74   -38 LegendNANA
16:00 -33.7 -36.9 73 0.0 12 4   101.75   -39 LegendNANA
17:00 -33.9 -37.2 72 0.0   0   101.74     LegendNANA
18:00 -33.7 -37.0 72 0.0 10 3   101.72   -37 LegendNANA
19:00 -33.9 -37.2 72 0.0 12 4   101.70   -39 LegendNANA
20:00 -34.6 -38.0 71 0.0 8 2   101.68   -37 LegendNANA
21:00 -34.5 -37.8 71 0.0 4 6   101.65   -42 LegendNANA
22:00 -33.9 -37.1 73 0.0 3 2   101.65   -36 LegendNANA
23:00 -34.3 -37.6 72 0.0 10 4   101.62   -39 LegendNANA

Notes on Data Quality.

Legend

  • E = Estimated
  • M = Missing
  • NA = Not Available*
  • [empty] = Indicates an unobserved value
Date modified: